DW0462 Weather Reports


Display with metric or nautical units.
time (UTC)temp
F
wind
direction
speed
MPH
gust
MPH
rain 1hr
in
rain 24hr
in
rain mn
in
humidity
%
barometer
mb
20260505031611 77 233 0.0 1.0 0.00 0.00 0.00 36 1005.8
20260505031002 78 228 0.0 1.0 0.00 0.00 0.00 34 1005.7
20260505030602 79 167 0.0 1.0 0.00 0.00 0.00 34 1005.7
20260505030003 80 247 0.0 1.0 0.00 0.00 0.00 35 1005.7
20260505025604 80 248 0.0 2.0 0.00 0.00 0.00 34 1005.7
20260505025002 81 245 0.0 2.0 0.00 0.00 0.00 29 1005.7
20260505024604 82 72 0.0 0.0 0.00 0.00 0.00 32 1005.7
20260505024005 82 73 0.0 1.0 0.00 0.00 0.00 30 1005.7
20260505023604 83 71 0.0 1.0 0.00 0.00 0.00 31 1005.7
20260505023003 84 71 0.0 1.0 0.00 0.00 0.00 30 1005.8
20260505022603 84 71 0.0 0.0 0.00 0.00 0.00 30 1005.8
20260505022006 85 71 0.0 1.0 0.00 0.00 0.00 29 1005.7
20260505021604 86 72 0.0 1.0 0.00 0.00 0.00 28 1005.8
20260505021002 86 72 0.0 1.0 0.00 0.00 0.00 26 1005.8
20260505020603 87 71 0.0 1.0 0.00 0.00 0.00 26 1005.8
20260505020005 87 31 0.0 2.0 0.00 0.00 0.00 27 1005.8
20260505015604 87 329 0.0 2.0 0.00 0.00 0.00 28 1005.9
20260505015003 88 97 0.0 1.0 0.00 0.00 0.00 25 1005.9
20260505014608 88 57 0.0 2.0 0.00 0.00 0.00 28 1005.9
20260505014003 89 27 0.0 2.0 0.00 0.00 0.00 28 1006.0
20260505013603 90 26 1.0 2.0 0.00 0.00 0.00 26 1006.0
20260505013002 91 327 0.0 1.0 0.00 0.00 0.00 21 1005.9
20260505012603 91 328 0.0 1.0 0.00 0.00 0.00 20 1006.0
20260505012003 90 309 0.0 1.0 0.00 0.00 0.00 21 1006.0
20260505011603 89 309 0.0 1.0 0.00 0.00 0.00 21 1006.1
20260505011002 88 25 0.0 4.0 0.00 0.00 0.00 23 1006.1
20260505010603 88 13 1.0 4.0 0.00 0.00 0.00 24 1006.2
20260505005603 90 278 2.0 5.0 0.00 0.00 0.00 22 1006.2
20260505005003 89 87 0.0 6.0 0.00 0.00 0.00 22 1006.2
20260505004603 89 111 0.0 5.0 0.00 0.00 0.00 22 1006.1
20260505004002 90 94 0.0 2.0 0.00 0.00 0.00 23 1006.0
20260505003603 90 99 0.0 2.0 0.00 0.00 0.00 23 1006.0
20260505003002 91 101 0.0 2.0 0.00 0.00 0.00 23 1006.1
20260505002603 90 128 0.0 3.0 0.00 0.00 0.00 23 1006.1
20260505002003 90 78 0.0 4.0 0.00 0.00 0.00 22 1006.1
20260505001602 91 355 1.0 5.0 0.00 0.00 0.00 21 1006.2
20260505001003 91 295 1.0 5.0 0.00 0.00 0.00 21 1006.2
20260505000603 91 265 0.0 1.0 0.00 0.00 0.00 21 1006.2
20260505000008 91 14 0.0 2.0 0.00 0.00 0.00 22 1006.2
20260504235603 90 37 0.0 3.0 0.00 0.00 0.00 22 1006.3
20260504235003 90 91 1.0 4.0 0.00 0.00 0.00 22 1006.3
20260504234603 91 118 0.0 3.0 0.00 0.00 0.00 21 1006.2
20260504234006 90 306 0.0 4.0 0.00 0.00 0.00 21 1006.3
20260504233603 90 285 1.0 4.0 0.00 0.00 0.00 22 1006.3
20260504233003 91 263 0.0 4.0 0.00 0.00 0.00 22 1006.4
20260504232603 91 266 1.0 5.0 0.00 0.00 0.00 21 1006.5
20260504232003 91 213 1.0 4.0 0.00 0.00 0.00 22 1006.4
20260504231602 92 96 1.0 4.0 0.00 0.00 0.00 21 1006.5
20260504231002 92 28 0.0 2.0 0.00 0.00 0.00 22 1006.7
20260504230605 92 234 0.0 2.0 0.00 0.00 0.00 22 1006.7
20260504230004 92 140 0.0 4.0 0.00 0.00 0.00 21 1006.8
20260504225603 91 236 0.0 4.0 0.00 0.00 0.00 22 1006.9
20260504225002 91 141 0.0 5.0 0.00 0.00 0.00 22 1006.9
20260504224602 91 148 1.0 5.0 0.00 0.00 0.00 23 1006.9
20260504224002 90 252 0.0 4.0 0.00 0.00 0.00 23 1006.9
20260504223604 89 242 0.0 4.0 0.00 0.00 0.00 23 1007.0
20260504223003 89 173 1.0 4.0 0.00 0.00 0.00 23 1007.0
20260504222604 89 218 0.0 5.0 0.00 0.00 0.00 23 1007.0
20260504222002 89 343 2.0 5.0 0.00 0.00 0.00 23 1007.1
20260504221604 88 307 2.0 7.0 0.00 0.00 0.00 23 1007.1
20260504221002 88 22 0.0 7.0 0.00 0.00 0.00 22 1007.2
20260504220606 88 138 0.0 3.0 0.00 0.00 0.00 23 1007.3
20260504220003 88 69 1.0 4.0 0.00 0.00 0.00 22 1007.4
20260504215603 88 274 2.0 4.0 0.00 0.00 0.00 25 1007.6
20260504215002 87 259 0.0 7.0 0.00 0.00 0.00 23 1007.6
20260504214607 87 84 2.0 7.0 0.00 0.00 0.00 25 1007.7
20260504214007 87 328 2.0 6.0 0.00 0.00 0.00 25 1007.7
20260504213603 86 82 1.0 6.0 0.00 0.00 0.00 24 1007.8
20260504213003 86 343 1.0 4.0 0.00 0.00 0.00 26 1007.9
20260504212603 86 292 1.0 4.0 0.00 0.00 0.00 26 1007.9
20260504212008 86 280 1.0 4.0 0.00 0.00 0.00 28 1008.1
20260504211606 86 319 2.0 4.0 0.00 0.00 0.00 28 1008.2
20260504211003 85 60 0.0 5.0 0.00 0.00 0.00 29 1008.2
20260504210605 85 79 0.0 5.0 0.00 0.00 0.00 29 1008.2
20260504210003 86 302 2.0 4.0 0.00 0.00 0.00 30 1008.4
20260504205603 86 22 0.0 4.0 0.00 0.00 0.00 29 1008.4
20260504205003 85 297 0.0 3.0 0.00 0.00 0.00 31 1008.4
20260504204630 85 144 0.0 5.0 0.00 0.00 0.00 30 1008.4
20260504204005 85 288 2.0 5.0 0.00 0.00 0.00 29 1008.7
20260504203603 85 288 1.0 3.0 0.00 0.00 0.00 29 1008.6
20260504203003 85 250 1.0 4.0 0.00 0.00 0.00 30 1008.8
20260504202604 84 241 0.0 4.0 0.00 0.00 0.00 31 1008.9
20260504202002 83 286 1.0 4.0 0.00 0.00 0.00 32 1008.9
20260504201603 83 337 1.0 5.0 0.00 0.00 0.00 33 1008.8
20260504201003 82 325 1.0 5.0 0.00 0.00 0.00 34 1008.9
20260504200602 81 291 1.0 4.0 0.00 0.00 0.00 35 1009.1
20260504200003 82 300 2.0 5.0 0.00 0.00 0.00 36 1009.1
20260504195603 82 285 2.0 5.0 0.00 0.00 0.00 35 1009.2
20260504195003 81 360 1.0 6.0 0.00 0.00 0.00 36 1009.1
20260504194606 81 286 2.0 6.0 0.00 0.00 0.00 37 1009.2
20260504194003 81 296 2.0 3.0 0.00 0.00 0.00 36 1009.2
20260504193604 81 331 1.0 3.0 0.00 0.00 0.00 37 1009.2
20260504193004 80 297 0.0 4.0 0.00 0.00 0.00 38 1009.3
20260504192605 79 257 1.0 5.0 0.00 0.00 0.00 38 1009.3
20260504192003 78 302 1.0 5.0 0.00 0.00 0.00 39 1009.3
20260504191605 78 313 2.0 4.0 0.00 0.00 0.00 40 1009.4
20260504191003 78 290 2.0 4.0 0.00 0.00 0.00 39 1009.4
20260504190605 78 302 2.0 7.0 0.00 0.00 0.00 40 1009.4
20260504190003 77 318 2.0 7.0 0.00 0.00 0.00 42 1009.5
20260504185603 77 22 2.0 5.0 0.00 0.00 0.00 42 1009.6
20260504185002 76 289 2.0 7.0 0.00 0.00 0.00 42 1009.7
20260504184603 76 300 3.0 7.0 0.00 0.00 0.00 42 1009.7
20260504184002 76 304 2.0 6.0 0.00 0.00 0.00 43 1009.7
20260504183603 76 304 2.0 6.0 0.00 0.00 0.00 43 1009.8
20260504183007 75 21 1.0 5.0 0.00 0.00 0.00 45 1009.8
20260504182602 75 305 2.0 5.0 0.00 0.00 0.00 45 1009.8
20260504182003 75 262 2.0 5.0 0.00 0.00 0.00 46 1009.9
20260504181606 75 275 2.0 4.0 0.00 0.00 0.00 47 1010.0
20260504181002 74 288 1.0 4.0 0.00 0.00 0.00 48 1010.0
20260504180602 74 281 1.0 5.0 0.00 0.00 0.00 48 1010.1
20260504180002 73 304 1.0 5.0 0.00 0.00 0.00 49 1010.1
20260504175602 72 252 1.0 5.0 0.00 0.00 0.00 50 1010.2
20260504175002 72 14 1.0 5.0 0.00 0.00 0.00 51 1010.2
20260504174602 71 339 1.0 4.0 0.00 0.00 0.00 51 1010.2
20260504174002 71 328 1.0 5.0 0.00 0.00 0.00 52 1010.3
20260504173601 71 271 2.0 5.0 0.00 0.00 0.00 51 1010.3
20260504173003 70 336 1.0 5.0 0.00 0.00 0.00 52 1010.3
20260504172602 70 18 1.0 5.0 0.00 0.00 0.00 52 1010.2
20260504171612 69 323 1.0 5.0 0.00 0.00 0.00 51 1010.3
20260504171006 69 290 1.0 4.0 0.00 0.00 0.00 53 1010.2
20260504170602 69 304 1.0 5.0 0.00 0.00 0.00 53 1010.2
20260504151002 63 30 0.0 1.0 0.00 0.00 0.00 65 1010.6
20260504150604 62 12 0.0 2.0 0.00 0.00 0.00 66 1010.5
20260504141003 62 89 0.0 1.0 0.00 0.00 0.00 66 1010.4
20260504140603 62 89 0.0 0.0 0.00 0.00 0.00 67 1010.4